Simultaneous Nadir Overpasses (SNOs) Predictions

Prediction of SNOs between GOES-16 and NOAA-20 Satellite Orbit:

Table of predicted SNOs for the next 14.0 days since TLE Epoch: 5/11/2024
Index Date Time (GOES-16) GOES-16 Lat,Lon NOAA-20 Lat,Lon Distance(km) Time Diff (sec)
1 05/11/2024 18:15:24 0.03, -75.20 0.53, -72.99 251.58 80
2 05/13/2024 06:39:49 -0.02, -75.21 0.64, -78.26 346.75 80
3 05/14/2024 06:18:23 -0.02, -75.22 -0.37, -73.72 170.92 80
4 05/15/2024 18:42:56 0.01, -75.23 -0.81, -79.02 431.63 80
5 05/16/2024 18:21:29 0.01, -75.24 0.16, -74.47 86.73 80
6 05/19/2024 06:24:28 -0.01, -75.28 -0.03, -75.20 8.77 80
7 05/21/2024 18:30:13 0.01, -75.31 -0.13, -75.96 73.52 80
8 05/22/2024 18:08:47 0.01, -75.33 0.91, -71.43 445.50 80
9 05/24/2024 06:33:11 -0.01, -75.36 0.28, -76.68 150.40 80
